HULIANWANG DIGUI-48

导读

HULIANWANG DIGUI-48即中国互联网低轨48星,于2025年7月30日在中国发射入轨,属于国内低轨卫星互联网星座的组网卫星。该卫星运行于近地轨道,依托低轨低延迟的轨道特性,承担全球互联网接入服务,可填补偏远地区、空海天领域的网络覆盖盲区,支撑应急通信、航空航海联网等应用,助力构建覆盖全球的高速空间信息网络,是中国卫星互联网基础设施建设的重要组成部分。

基本信息
目录编号:
65051
目录名称:
HULIANWANG DIGUI-48
国际标识:
2025-162J
轨道中心:
EARTH
卫星名称:
HULIANWANG DIGUI-48
卫星全名:
HULIANWANG DIGUI-48
卫星状态:
在轨 (已飞行317 天)
发射日期:
2025-07-30 UTC
国别 :
中国 (CN)
星等 :
--
轨道信息
数据来源 国际轨道数据
星历时间: 2026-06-12T13:06:14+0800
14小时前
查看轨道信息
半长轴: 7527.446km
偏心率: 0.0000325
轨道倾角: 50.005°
近地点辐角 125.516°
升交点赤经 283.305°
平近点角 234.575°
近地点: 1149.064km
远地点: 1149.554km
周期: 108.326分钟
每日圈数: 13.293254
详细信息
使用方式:
暂无
2D轨道图
3D轨道图
轨道高度分析图
轨道倾角分析图
轨道综合分析图
查看轨道综合分析图